TimeEDT,TemperatureF,Dew PointF,Humidity,Sea Level PressureIn,VisibilityMPH,Wind Direction,Wind SpeedMPH,Gust SpeedMPH,PrecipitationIn,Events,Conditions,WindDirDegrees,DateUTC
12:53 AM,46.9,44.1,90,30.15,10.0,Calm,Calm,-,N/A,,Clear,0,2013-09-19 04:53:00
1:34 AM,44.6,42.8,93,30.14,1.8,Calm,Calm,-,N/A,,Clear,0,2013-09-19 05:34:00
1:43 AM,44.6,42.8,93,30.14,3.0,Calm,Calm,-,N/A,,Clear,0,2013-09-19 05:43:00
1:53 AM,45.0,42.1,90,30.14,10.0,Calm,Calm,-,N/A,,Clear,0,2013-09-19 05:53:00
2:12 AM,42.8,42.8,100,30.13,1.8,Calm,Calm,-,N/A,,Clear,0,2013-09-19 06:12:00
2:21 AM,44.6,42.8,93,30.13,0.5,Calm,Calm,-,N/A,Fog,Fog,0,2013-09-19 06:21:00
2:33 AM,42.8,41.0,93,30.13,1.2,Calm,Calm,-,N/A,,Clear,0,2013-09-19 06:33:00
2:37 AM,42.8,41.0,93,30.12,0.8,Calm,Calm,-,N/A,,Mist,0,2013-09-19 06:37:00
2:51 AM,42.8,42.8,100,30.13,2.0,Calm,Calm,-,N/A,,Clear,0,2013-09-19 06:51:00
2:52 AM,43.0,42.1,97,30.13,2.0,Calm,Calm,-,N/A,,Clear,0,2013-09-19 06:52:00
2:58 AM,42.8,41.0,93,30.13,0.8,East,3.5,-,N/A,,Mist,90,2013-09-19 06:58:00
3:11 AM,42.8,41.0,93,30.12,1.0,Calm,Calm,-,N/A,,Clear,0,2013-09-19 07:11:00
3:24 AM,44.6,42.8,93,30.12,1.0,Calm,Calm,-,N/A,,Mist,0,2013-09-19 07:24:00
3:32 AM,44.6,42.8,93,30.12,0.8,Calm,Calm,-,N/A,,Mist,0,2013-09-19 07:32:00
3:53 AM,41.0,39.9,96,30.12,1.0,Calm,Calm,-,N/A,,Mist,0,2013-09-19 07:53:00
3:56 AM,41.0,39.2,93,30.12,2.0,Calm,Calm,-,N/A,,Partly Cloudy,0,2013-09-19 07:56:00
4:04 AM,42.8,39.2,87,30.12,1.0,Calm,Calm,-,N/A,,Mist,0,2013-09-19 08:04:00
4:11 AM,42.8,41.0,93,30.12,0.5,Calm,Calm,-,N/A,Fog,Fog,0,2013-09-19 08:11:00
4:33 AM,42.8,41.0,93,30.12,1.2,Calm,Calm,-,N/A,,Scattered Clouds,0,2013-09-19 08:33:00
4:35 AM,42.8,39.2,87,30.12,4.0,Calm,Calm,-,N/A,,Scattered Clouds,0,2013-09-19 08:35:00
4:53 AM,42.1,39.9,92,30.12,8.0,Calm,Calm,-,N/A,,Clear,0,2013-09-19 08:53:00
4:57 AM,39.2,39.2,100,30.12,1.5,Calm,Calm,-,N/A,,Partly Cloudy,0,2013-09-19 08:57:00
4:59 AM,39.2,37.4,93,30.12,0.8,Calm,Calm,-,N/A,,Mist,0,2013-09-19 08:59:00
5:35 AM,41.0,39.2,93,30.12,1.2,Calm,Calm,-,N/A,,Partly Cloudy,0,2013-09-19 09:35:00
5:37 AM,39.2,39.2,100,30.12,4.0,Calm,Calm,-,N/A,,Partly Cloudy,0,2013-09-19 09:37:00
5:53 AM,41.0,39.0,93,30.12,9.0,Calm,Calm,-,N/A,,Clear,0,2013-09-19 09:53:00
6:18 AM,39.2,37.4,93,30.13,1.8,Calm,Calm,-,N/A,,Clear,0,2013-09-19 10:18:00
6:28 AM,39.2,37.4,93,30.13,0.5,Calm,Calm,-,N/A,Fog,Fog,0,2013-09-19 10:28:00
6:36 AM,39.2,37.4,93,30.13,0.8,Calm,Calm,-,N/A,,Mist,0,2013-09-19 10:36:00
6:42 AM,41.0,37.4,87,30.13,1.2,Calm,Calm,-,N/A,,Scattered Clouds,0,2013-09-19 10:42:00
6:45 AM,41.0,39.2,93,30.13,3.0,Calm,Calm,-,N/A,,Partly Cloudy,0,2013-09-19 10:45:00
6:53 AM,42.1,39.9,92,30.13,10.0,Calm,Calm,-,N/A,,Clear,0,2013-09-19 10:53:00
7:00 AM,42.8,39.2,87,30.13,10.0,Calm,Calm,-,N/A,,Partly Cloudy,0,2013-09-19 11:00:00
7:53 AM,50.0,48.0,93,30.13,10.0,Calm,Calm,-,N/A,,Clear,0,2013-09-19 11:53:00
8:53 AM,59.0,48.9,69,30.13,10.0,Calm,Calm,-,N/A,,Clear,0,2013-09-19 12:53:00
9:53 AM,64.9,51.1,61,30.13,10.0,Calm,Calm,-,N/A,,Clear,0,2013-09-19 13:53:00
10:53 AM,70.0,51.1,51,30.12,10.0,Calm,Calm,-,N/A,,Clear,0,2013-09-19 14:53:00
11:53 AM,75.0,51.1,43,30.10,10.0,Calm,Calm,-,N/A,,Clear,0,2013-09-19 15:53:00
12:53 PM,78.1,48.0,35,30.09,10.0,NW,5.8,-,N/A,,Clear,320,2013-09-19 16:53:00
1:53 PM,78.1,48.9,36,30.08,10.0,Variable,5.8,-,N/A,,Clear,0,2013-09-19 17:53:00
2:53 PM,78.1,50.0,37,30.06,10.0,SW,4.6,-,N/A,,Clear,220,2013-09-19 18:53:00
3:53 PM,78.1,48.9,36,30.04,10.0,SW,3.5,-,N/A,,Clear,220,2013-09-19 19:53:00
4:53 PM,78.1,48.9,36,30.04,10.0,West,4.6,-,N/A,,Clear,270,2013-09-19 20:53:00
5:53 PM,77.0,50.0,39,30.03,10.0,WSW,4.6,-,N/A,,Clear,240,2013-09-19 21:53:00
6:53 PM,66.0,53.1,63,30.04,10.0,SSW,3.5,-,N/A,,Clear,210,2013-09-19 22:53:00
7:53 PM,57.9,53.1,84,30.06,10.0,Calm,Calm,-,N/A,,Clear,0,2013-09-19 23:53:00
8:53 PM,55.9,52.0,87,30.06,10.0,Calm,Calm,-,N/A,,Clear,0,2013-09-20 00:53:00
9:51 PM,51.8,48.2,88,30.07,1.8,Calm,Calm,-,N/A,,Clear,0,2013-09-20 01:51:00
9:53 PM,51.1,48.9,92,30.07,1.5,Calm,Calm,-,N/A,,Clear,0,2013-09-20 01:53:00
10:02 PM,53.6,50.0,88,30.07,0.5,Calm,Calm,-,N/A,Fog,Fog,0,2013-09-20 02:02:00
10:08 PM,51.8,50.0,94,30.07,2.5,Calm,Calm,-,N/A,,Clear,0,2013-09-20 02:08:00
10:17 PM,48.2,48.2,100,30.07,0.8,Calm,Calm,-,N/A,,Clear,0,2013-09-20 02:17:00
10:25 PM,51.8,50.0,94,30.07,0.5,Calm,Calm,-,N/A,Fog,Fog,0,2013-09-20 02:25:00
10:53 PM,51.1,48.9,92,30.07,1.0,Calm,Calm,-,N/A,,Mist,0,2013-09-20 02:53:00
10:55 PM,51.8,48.2,88,30.07,4.0,Calm,Calm,-,N/A,,Partly Cloudy,0,2013-09-20 02:55:00
11:06 PM,48.2,48.2,100,30.07,1.5,Calm,Calm,-,N/A,,Partly Cloudy,0,2013-09-20 03:06:00
11:10 PM,50.0,48.2,94,30.07,0.8,Calm,Calm,-,N/A,,Mist,0,2013-09-20 03:10:00
11:53 PM,48.0,46.9,96,30.06,0.2,Calm,Calm,-,N/A,Fog,Fog,0,2013-09-20 03:53:00